Location: Brasstown Bald
(34.8693°N, 83.8103°W)
Time: 23:06:28
(UTC-04:00)

Amateur Radio Satellites - All Passes

Search period start: 18 April 2015 22:36
Search period end: 19 April 2015 22:36
Location: Brasstown Bald, 34.8693°N, 83.8103°W

Satellite Date Start Highest point End Downlink Frequencies (MHz)
Time Altitude Azimuth
Oscar 11 18 Apr 22:36:51 22:41:11 79° 258° (WSW) 22:45:34 145.826/435.025
50 SAT 18 Apr 22:42:07 22:44:22 15° 69° (ENE) 22:46:48 437.505
HO-68 18 Apr 22:43:28 22:49:38 29° 265° (W) 22:55:38 435.675
DELFI C3 18 Apr 22:55:40 22:59:42 60° 260° (W) 23:03:45 145.870
DX 1 18 Apr 22:57:06 23:01:21 59° 75° (ENE) 23:05:37 434.975-435.025
ISS 18 Apr 22:57:46 23:00:59 68° 226° (SW) 23:04:12 145.825
PHONESAT 2.4 18 Apr 22:58:22 23:01:47 41° 347° (NNW) 23:05:12 2401.200-2431.200
UWE-3 18 Apr 23:02:26 23:06:36 61° 260° (W) 23:10:55 435.000/436.395/437.385
DOVE 4 18 Apr 23:03:05 23:04:41 12° 270° (W) 23:06:02 437.250
TIGRISAT 18 Apr 23:05:33 23:07:54 14° 91° (E) 23:10:31 435.000
CINEMA 3 18 Apr 23:05:42 23:09:02 22° 266° (W) 23:12:22 145.822/145.860
UNISAT 6 18 Apr 23:06:02 23:08:35 15° 91° (E) 23:11:21 437.425
SO-50 18 Apr 23:06:22 23:11:03 41° 55° (NE) 23:15:43 436.795
HUMSAT D 18 Apr 23:17:34 23:21:43 73° 77° (ENE) 23:25:56 437.325/437.525
RS-15 18 Apr 23:21:44 23:29:28 21° 30° (NNE) 23:37:52 29.354- 29.394
O/OREOS (USA 219) 18 Apr 23:22:11 23:23:35 12° 100° (E) 23:25:18 437.305
POLYITAN 1 18 Apr 23:31:30 23:33:02 12° 91° (E) 23:34:50 437.675
VELOX 1 18 Apr 23:33:08 23:37:28 65° 75° (ENE) 23:41:51 145.980
FUNcube-1 18 Apr 23:33:28 23:37:18 33° 264° (W) 23:41:12 145.935
DUCHIFAT 1 18 Apr 23:41:30 23:43:57 15° 92° (E) 23:46:34 145.980
ANTELSAT 18 Apr 23:46:14 23:50:43 42° 98° (E) 23:55:10 437.575/2403.000
VERMONT LUNAR 18 Apr 23:47:41 23:50:45 31° 6° (N) 23:53:49 437.305
AISAT 18 Apr 23:47:45 23:52:09 82° 258° (WSW) 23:56:34 437.250
UKube-1 18 Apr 23:51:45 23:55:39 32° 263° (W) 23:59:30 .
QB50P1 18 Apr 23:53:11 23:56:28 22° 95° (E) 23:59:51 145.935-145.965
ZACube-1 18 Apr 23:56:43 23:59:41 18° 268° (W) 00:02:34 437.345
ESTCUBE 1 18 Apr 23:59:26 00:03:55 67° 76° (ENE) 00:08:25 437.505/2401.250
CUBEBUG 2 18 Apr 23:59:38 00:00:55 11° 271° (W) 00:01:56 437.445
CUBEBUG 1 19 Apr 00:01:30 00:05:47 61° 76° (ENE) 00:10:04 437.445
Cosmos 2491 19 Apr 00:08:48 00:17:15 60° 92° (E) 00:25:48 435.465 / 435.565
BUGSAT 1 19 Apr 00:10:38 00:13:54 23° 95° (E) 00:17:16 437.445
50 SAT 19 Apr 00:15:22 00:18:57 32° 263° (W) 00:22:34 437.505
QB50P2 19 Apr 00:15:47 00:19:52 42° 99° (E) 00:23:57 145.880/145.840
TISAT 1 19 Apr 00:17:18 00:19:56 17° 70° (ENE) 00:22:43 437.305
SPROUT 19 Apr 00:17:33 00:20:46 22° 71° (ENE) 00:24:05 437.525
YUBILEINY 19 Apr 00:27:18 00:35:56 64° 268° (W) 00:44:27 435.215
PHONESAT 2.4 19 Apr 00:37:15 00:40:31 32° 4° (N) 00:43:47 2401.200-2431.200
POPSAT HIP 1 19 Apr 00:38:53 00:43:11 81° 100° (E) 00:47:29 437.405
NANOSAT C BR1 19 Apr 00:39:17 00:43:35 81° 102° (ESE) 00:47:52 145.865
TIGRISAT 19 Apr 00:40:24 00:44:59 48° 286° (WNW) 00:49:28 435.000
UNISAT 6 19 Apr 00:41:07 00:45:39 46° 286° (WNW) 00:50:08 437.425
SO-50 19 Apr 00:47:41 00:51:21 20° 250° (WSW) 00:54:50 436.795
O/OREOS (USA 219) 19 Apr 00:58:07 01:02:37 54° 292° (WNW) 01:07:07 437.305
POLYITAN 1 19 Apr 01:05:07 01:09:16 47° 286° (WNW) 01:13:24 437.675
DUCHIFAT 1 19 Apr 01:16:00 01:19:57 36° 287° (WNW) 01:23:51 145.980
ANTELSAT 19 Apr 01:24:03 01:27:11 17° 292° (WNW) 01:30:07 437.575/2403.000
VERMONT LUNAR 19 Apr 01:25:12 01:28:34 80° 21° (NNE) 01:31:55 437.305
QB50P1 19 Apr 01:28:44 01:32:19 26° 288° (WNW) 01:35:49 145.935-145.965
ITUPSAT 1 19 Apr 01:30:45 01:34:01 19° 68° (ENE) 01:37:26 437.325
AIST 1 19 Apr 01:32:36 01:35:16 17° 89° (E) 01:38:06
RS-15 19 Apr 01:33:12 01:44:45 67° 57° (ENE) 01:56:48 29.354- 29.394
BUGSAT 1 19 Apr 01:46:03 01:49:19 23° 289° (WNW) 01:52:31 437.445
TISAT 1 19 Apr 01:51:44 01:55:31 32° 263° (W) 01:59:16 437.305
QB50P2 19 Apr 01:53:04 01:55:27 14° 292° (WNW) 01:57:37 145.880/145.840
SPROUT 19 Apr 01:53:08 01:56:45 26° 265° (W) 02:00:19 437.525
BEESAT 19 Apr 02:05:10 02:09:42 44° 73° (ENE) 02:14:17 436.000
SWISSCUBE 19 Apr 02:06:16 02:10:52 50° 74° (ENE) 02:15:32 437.505
Cosmos 2491 19 Apr 02:07:40 02:14:45 26° 291° (WNW) 02:21:33 435.465 / 435.565
Cosmos 2504 19 Apr 02:10:36 02:18:40 58° 79° (E) 02:26:09 435.465 / 435.565
PHONESAT 2.4 19 Apr 02:15:33 02:19:07 73° 22° (NNE) 02:22:39 2401.200-2431.200
KKS-1 19 Apr 02:30:05 02:32:00 13° 67° (ENE) 02:34:10 437.445
Oscar 19 19 Apr 02:51:46 02:56:55 59° 100° (E) 03:02:03 437.125/150
Gurwin Techsat 1B 19 Apr 02:56:14 02:59:08 15° 91° (E) 03:02:18 435.225
VERMONT LUNAR 19 Apr 03:03:31 03:05:51 17° 216° (SW) 03:08:07 437.305
ITUPSAT 1 19 Apr 03:07:10 03:11:40 39° 262° (W) 03:16:09 437.325
AIST 1 19 Apr 03:08:49 03:12:43 31° 282° (WNW) 03:16:34
ITAMSAT 1 19 Apr 03:10:08 03:14:17 25° 95° (E) 03:18:33 435.822/435.867
STARS 19 Apr 03:40:37 03:44:51 51° 74° (ENE) 03:49:07 437.465
BEESAT 19 Apr 03:44:50 03:47:49 16° 268° (W) 03:50:36 436.000
SWISSCUBE 19 Apr 03:46:29 03:49:05 14° 269° (W) 03:51:25 437.505
RS-15 19 Apr 03:46:42 03:56:38 32° 253° (WSW) 04:06:24 29.354- 29.394
PHONESAT 2.4 19 Apr 03:54:22 03:57:09 21° 215° (SW) 03:59:53 2401.200-2431.200
KKS-1 19 Apr 04:03:59 04:08:17 49° 261° (W) 04:12:35 437.445
Cosmos 2504 19 Apr 04:05:19 04:11:27 23° 276° (W) 04:16:57 435.465 / 435.565
BEESAT 2 19 Apr 04:11:48 04:12:09 10° 109° (ESE) 04:12:46 435.950
BEESAT 3 19 Apr 04:18:02 04:20:26 16° 110° (ESE) 04:23:02 437.485
CUSAT 1 19 Apr 04:21:46 04:24:12 12° 66° (ENE) 04:27:24 437.405
Oscar 19 19 Apr 04:32:51 04:35:50 15° 294° (WNW) 04:38:33 437.125/150
Gurwin Techsat 1B 19 Apr 04:34:20 04:39:32 55° 286° (WNW) 04:44:41 435.225
AO-7 19 Apr 04:36:17 04:42:49 26° 95° (E) 04:49:38 29.400- 29.500
HORYU 2 19 Apr 04:41:30 04:45:36 34° 97° (E) 04:49:42 437.375
JUGNU 19 Apr 04:47:34 04:50:10 13° 169° (SSE) 04:52:51 437.505
GONETS M04 19 Apr 04:48:33 04:56:46 42° 75° (ENE) 05:05:02
ITAMSAT 1 19 Apr 04:49:13 04:53:51 33° 289° (WNW) 04:58:23 435.822/435.867
JAS-2 19 Apr 05:04:33 05:10:35 38° 95° (E) 05:16:00 435.910
MOZHAYETS 4 19 Apr 05:12:40 05:17:08 49° 74° (ENE) 05:21:38
STARS 19 Apr 05:20:12 05:21:41 11° 270° (W) 05:22:53 437.465
AUBIESAT-1 19 Apr 05:32:21 05:34:44 14° 62° (ENE) 05:37:21 437.475
BEESAT 2 19 Apr 05:45:48 05:49:50 56° 301° (WNW) 05:53:55 435.950
DANDE 19 Apr 05:51:13 05:57:53 51° 78° (ENE) 06:05:55 436.750
BEESAT 3 19 Apr 05:54:24 05:58:12 36° 304° (NW) 06:02:02 437.485
AIST 2 19 Apr 06:00:05 06:04:15 61° 117° (ESE) 06:08:29 435.215
CUSAT 1 19 Apr 06:00:43 06:07:52 74° 81° (E) 06:16:09 437.405
M-CUBED/EXP-1 PRIME 19 Apr 06:15:15 06:19:39 45° 69° (ENE) 06:24:16 437.505
HORYU 2 19 Apr 06:18:49 06:22:02 19° 291° (WNW) 06:25:05 437.375
AO-7 19 Apr 06:27:57 06:36:06 60° 291° (WNW) 06:44:12 29.400- 29.500
CUBESAT XI-V 19 Apr 06:29:02 06:32:41 24° 71° (ENE) 06:36:25 437.345
SRMSAT 19 Apr 06:30:54 06:33:39 14° 169° (SSE) 06:36:29 437.500
JUGNU 19 Apr 06:34:39 06:38:28 18° 178° (S) 06:42:18 437.505
CUTE-I 19 Apr 06:44:41 06:47:34 15° 91° (E) 06:50:44 437.470
GONETS M04 19 Apr 06:45:34 06:53:32 37° 272° (W) 07:01:16
JAS-2 19 Apr 06:49:51 06:55:30 29° 294° (WNW) 07:00:28 435.910
STRAND 1 19 Apr 06:50:44 06:54:32 22° 68° (ENE) 06:58:29 437.568
Cubesat XI-IV 19 Apr 06:51:31 06:55:01 18° 92° (E) 06:58:44 437.490
MOZHAYETS 4 19 Apr 06:52:18 06:54:42 13° 270° (W) 06:56:49
Cosmos 2499 19 Apr 06:54:36 07:02:02 43° 75° (ENE) 07:09:02 435.465 / 435.565
PRISM 19 Apr 07:00:20 07:04:04 33° 73° (ENE) 07:07:51 437.425
AUBIESAT-1 19 Apr 07:04:28 07:09:01 59° 256° (WSW) 07:13:47 437.475
DANDE 19 Apr 07:35:00 07:41:04 30° 268° (W) 07:47:47 436.750
AIST 2 19 Apr 07:41:10 07:43:17 13° 314° (NW) 07:45:15 435.215
CUSAT 1 19 Apr 07:45:07 07:50:21 20° 270° (W) 07:55:37 437.405
M-CUBED/EXP-1 PRIME 19 Apr 07:51:40 07:54:46 17° 265° (W) 07:57:44 437.505
CUBESAT XI-V 19 Apr 08:05:57 08:10:01 28° 264° (W) 08:14:00 437.345
SRMSAT 19 Apr 08:18:13 08:22:08 18° 178° (S) 08:26:03 437.500
CUTE-I 19 Apr 08:22:52 08:28:04 55° 287° (WNW) 08:33:14 437.470
JUGNU 19 Apr 08:23:24 08:26:47 16° 188° (S) 08:30:07 437.505
AO-7 19 Apr 08:25:28 08:27:26 11° 309° (NW) 08:28:47 29.400- 29.500
STRAND 1 19 Apr 08:28:47 08:33:32 37° 262° (W) 08:38:15 437.568
Cubesat XI-IV 19 Apr 08:30:19 08:35:24 46° 288° (WNW) 08:40:26 437.490
PRISM 19 Apr 08:36:54 08:39:39 16° 267° (W) 08:42:15 437.425
Cosmos 2499 19 Apr 08:48:13 08:54:56 31° 274° (W) 09:01:05 435.465 / 435.565
PCSat 19 Apr 09:23:10 09:26:12 16° 106° (ESE) 09:29:31 145.827
BRITE-PL 19 Apr 09:24:38 09:29:19 43° 99° (E) 09:34:23 437.365/2234.400
DOVE 4 19 Apr 09:24:59 09:28:23 19° 93° (E) 09:32:06 437.250
COMPASS 1 19 Apr 09:29:30 09:30:55 12° 90° (E) 09:32:35 437.405
O/OREOS (USA 219) 19 Apr 09:33:51 09:36:08 14° 57° (ENE) 09:38:36 437.305
CANX-2 19 Apr 09:37:35 09:41:12 26° 95° (E) 09:44:51 2200.000
SEEDS 19 Apr 09:41:53 09:45:08 22° 94° (E) 09:48:28 437.485
CUTE 1.7 + AOD 2 19 Apr 09:47:43 09:51:32 31° 96° (E) 09:55:22 437.475
GOMX 1 19 Apr 09:49:38 09:54:30 51° 99° (E) 09:59:39 467.674
SRMSAT 19 Apr 10:07:08 10:10:37 16° 188° (S) 10:14:03 437.500
HO-68 19 Apr 10:13:23 10:20:32 66° 102° (ESE) 10:27:39 435.675
CUBEBUG 2 19 Apr 10:15:15 10:17:58 16° 91° (E) 10:20:55 437.445
AAUSAT CUBESAT 2 19 Apr 10:16:13 10:20:09 38° 98° (E) 10:24:03 437.432
Cosmos 2491 19 Apr 10:24:11 10:30:53 25° 69° (ENE) 10:37:56 435.465 / 435.565
Oscar 11 19 Apr 10:28:13 10:31:42 24° 95° (E) 10:35:14 145.826/435.025
DELFI C3 19 Apr 10:39:14 10:42:24 22° 95° (E) 10:45:38 145.870
ANTELSAT 19 Apr 10:42:32 10:46:06 25° 71° (ENE) 10:49:51 437.575/2403.000
QB50P1 19 Apr 10:44:57 10:46:09 11° 67° (ENE) 10:47:35 145.935-145.965
DX 1 19 Apr 10:50:35 10:52:32 13° 92° (E) 10:54:42 434.975-435.025
UWE-3 19 Apr 10:55:39 10:59:55 35° 97° (E) 11:04:14 435.000/436.395/437.385
BUGSAT 1 19 Apr 11:00:07 11:00:58 11° 68° (ENE) 11:02:04 437.445
DOVE 4 19 Apr 11:01:35 11:06:18 43° 286° (WNW) 11:11:11 437.250
CINEMA 3 19 Apr 11:02:08 11:07:04 81° 282° (WNW) 11:12:06 145.822/145.860
COMPASS 1 19 Apr 11:02:52 11:06:55 45° 285° (WNW) 11:10:55 437.405
PCSat 19 Apr 11:03:53 11:09:12 57° 299° (WNW) 11:14:33 145.827
BRITE-PL 19 Apr 11:04:08 11:07:38 19° 290° (WNW) 11:11:07 437.365/2234.400
QB50P2 19 Apr 11:06:17 11:09:24 21° 71° (ENE) 11:12:39 145.880/145.840
HUMSAT D 19 Apr 11:06:23 11:08:58 16° 92° (E) 11:11:43 437.325/437.525
O/OREOS (USA 219) 19 Apr 11:11:34 11:15:55 48° 254° (WSW) 11:20:12 437.305
CANX-2 19 Apr 11:13:42 11:17:01 21° 289° (WNW) 11:20:13 2200.000
SEEDS 19 Apr 11:17:22 11:20:55 25° 289° (WNW) 11:24:22 437.485
CUTE 1.7 + AOD 2 19 Apr 11:24:14 11:27:15 18° 290° (WNW) 11:30:07 437.475
FUNcube-1 19 Apr 11:24:33 11:29:05 58° 100° (E) 11:33:38 145.935
VELOX 1 19 Apr 11:28:19 11:30:57 16° 92° (E) 11:33:47 145.980
YUBILEINY 19 Apr 11:28:27 11:35:42 31° 86° (E) 11:43:14 435.215
POPSAT HIP 1 19 Apr 11:28:37 11:32:28 37° 73° (ENE) 11:36:23 437.405
NANOSAT C BR1 19 Apr 11:28:47 11:32:38 37° 73° (ENE) 11:36:33 145.865
GOMX 1 19 Apr 11:29:08 11:32:20 17° 291° (WNW) 11:35:25 467.674
TIGRISAT 19 Apr 11:35:31 11:39:55 82° 259° (W) 11:44:28 435.000
UNISAT 6 19 Apr 11:36:27 11:40:51 78° 258° (WSW) 11:45:25 437.425
UKube-1 19 Apr 11:42:09 11:46:22 51° 100° (E) 11:50:36 .
AISAT 19 Apr 11:42:27 11:46:02 24° 95° (E) 11:49:43 437.250
ZACube-1 19 Apr 11:46:54 11:51:31 76° 283° (WNW) 11:56:06 437.345
CUBEBUG 2 19 Apr 11:50:22 11:54:54 45° 286° (WNW) 11:59:26 437.445
AAUSAT CUBESAT 2 19 Apr 11:53:04 11:55:28 15° 291° (WNW) 11:57:42 437.432
POLYITAN 1 19 Apr 11:54:34 11:58:45 82° 78° (ENE) 12:03:00 437.675
CUBEBUG 1 19 Apr 11:55:13 11:57:32 15° 92° (E) 12:00:03 437.445
50 SAT 19 Apr 11:55:47 11:59:33 36° 98° (E) 12:03:17 437.505
ESTCUBE 1 19 Apr 11:56:39 11:59:38 18° 93° (E) 12:02:46 437.505/2401.250
HO-68 19 Apr 12:02:27 12:07:44 22° 298° (WNW) 12:12:44 435.675
Oscar 11 19 Apr 12:04:15 12:07:50 25° 289° (WNW) 12:11:19 145.826/435.025
DUCHIFAT 1 19 Apr 12:04:40 12:08:50 78° 258° (WSW) 12:13:03 145.980
DELFI C3 19 Apr 12:14:17 12:17:29 22° 289° (WNW) 12:20:35 145.870
QB50P1 19 Apr 12:17:32 12:21:38 51° 260° (W) 12:25:45 145.935-145.965
ANTELSAT 19 Apr 12:19:08 12:22:50 25° 265° (W) 12:26:31 437.575/2403.000
Cosmos 2491 19 Apr 12:19:46 12:28:28 63° 268° (W) 12:37:06 435.465 / 435.565
DX 1 19 Apr 12:24:54 12:29:03 44° 287° (WNW) 12:33:11 434.975-435.025
BUGSAT 1 19 Apr 12:32:10 12:36:05 49° 260° (W) 12:40:00 437.445
UWE-3 19 Apr 12:32:46 12:36:13 20° 290° (WNW) 12:39:33 435.000/436.395/437.385
HUMSAT D 19 Apr 12:40:52 12:44:54 36° 287° (WNW) 12:48:50 437.325/437.525
QB50P2 19 Apr 12:41:38 12:45:12 26° 264° (W) 12:48:44 145.880/145.840
FUNcube-1 19 Apr 13:03:04 13:04:59 12° 293° (WNW) 13:06:39 145.935
VELOX 1 19 Apr 13:03:36 13:07:42 37° 287° (WNW) 13:11:47 145.980
POPSAT HIP 1 19 Apr 13:06:11 13:08:34 14° 268° (W) 13:10:45 437.405
NANOSAT C BR1 19 Apr 13:06:19 13:08:42 14° 268° (W) 13:10:52 145.865
SO-50 19 Apr 13:18:07 13:21:58 27° 112° (ESE) 13:26:00 436.795
AISAT 19 Apr 13:18:54 13:22:35 25° 289° (WNW) 13:26:10 437.250
AIST 1 19 Apr 13:19:01 13:23:03 41° 79° (E) 13:27:06
UKube-1 19 Apr 13:20:20 13:22:08 12° 293° (WNW) 13:23:42 .
YUBILEINY 19 Apr 13:23:43 13:32:14 50° 283° (WNW) 13:40:42 435.215
CUBEBUG 1 19 Apr 13:30:02 13:34:07 39° 287° (WNW) 13:38:10 437.445
50 SAT 19 Apr 13:31:46 13:34:06 15° 291° (WNW) 13:36:15 437.505
ESTCUBE 1 19 Apr 13:32:34 13:36:38 34° 287° (WNW) 13:40:39 437.505/2401.250
TISAT 1 19 Apr 13:39:10 13:43:16 47° 100° (E) 13:47:23 437.305
SPROUT 19 Apr 13:42:17 13:46:35 68° 101° (E) 13:50:53 437.525
ISS 19 Apr 13:58:46 14:00:58 17° 129° (SE) 14:03:14 145.825
Oscar 19 19 Apr 14:05:15 14:10:17 61° 74° (ENE) 14:15:23 437.125/150
BEESAT 2 19 Apr 14:08:32 14:12:11 30° 54° (NE) 14:15:49 435.950
BEESAT 19 Apr 14:10:16 14:12:49 15° 91° (E) 14:15:37 436.000
SWISSCUBE 19 Apr 14:11:13 14:14:10 17° 92° (E) 14:17:19 437.505
Gurwin Techsat 1B 19 Apr 14:14:08 14:17:37 19° 67° (ENE) 14:21:19 435.225
BEESAT 3 19 Apr 14:16:08 14:20:04 44° 57° (ENE) 14:23:56 437.485
ITAMSAT 1 19 Apr 14:24:58 14:29:17 28° 70° (ENE) 14:33:41 435.822/435.867
AIST 2 19 Apr 14:26:04 14:28:43 16° 48° (NE) 14:31:27 435.215
Cosmos 2504 19 Apr 14:42:47 14:51:11 56° 91° (E) 14:59:49 435.465 / 435.565
SO-50 19 Apr 14:58:23 15:02:27 29° 308° (NW) 15:06:35 436.795
AIST 1 19 Apr 14:58:34 15:00:22 12° 272° (W) 15:01:55
ITUPSAT 1 19 Apr 15:10:48 15:15:33 70° 102° (ESE) 15:20:17 437.325
JAS-2 19 Apr 15:13:47 15:17:55 16° 61° (ENE) 15:22:30 435.910
TISAT 1 19 Apr 15:16:47 15:18:42 13° 292° (WNW) 15:20:24 437.305
AO-7 19 Apr 15:32:09 15:38:44 28° 61° (ENE) 15:45:33 29.400- 29.500
ISS 19 Apr 15:34:07 15:37:09 35° 323° (NW) 15:40:12 145.825
STARS 19 Apr 15:35:38 15:37:27 13° 91° (E) 15:39:33 437.465
HORYU 2 19 Apr 15:37:10 15:40:32 22° 70° (ENE) 15:44:02 437.375
BEESAT 19 Apr 15:46:25 15:50:58 46° 287° (WNW) 15:55:30 436.000
BEESAT 2 19 Apr 15:47:07 15:50:07 19° 249° (WSW) 15:52:59 435.950
Oscar 19 19 Apr 15:47:41 15:50:08 13° 270° (W) 15:52:16 437.125/150
SWISSCUBE 19 Apr 15:47:47 15:52:15 41° 287° (WNW) 15:56:40 437.505
Gurwin Techsat 1B 19 Apr 15:52:09 15:57:16 48° 261° (W) 16:02:24 435.225
RS-15 19 Apr 15:52:30 16:03:02 60° 113° (ESE) 16:13:46 29.354- 29.394
BEESAT 3 19 Apr 15:55:50 15:57:44 13° 251° (WSW) 15:59:25 437.485
KKS-1 19 Apr 15:58:25 16:02:37 39° 98° (E) 16:06:51 437.445
AIST 2 19 Apr 16:03:33 16:07:34 43° 245° (WSW) 16:11:29 435.215
ITAMSAT 1 19 Apr 16:04:10 16:08:43 30° 264° (W) 16:13:12 435.822/435.867
Cosmos 2504 19 Apr 16:37:30 16:45:03 30° 289° (WNW) 16:52:26 435.465 / 435.565
ITUPSAT 1 19 Apr 16:51:39 16:52:56 11° 295° (WNW) 16:53:55 437.325
JAS-2 19 Apr 16:54:16 17:02:00 84° 76° (ENE) 17:09:53 435.910
STARS 19 Apr 17:09:56 17:14:14 48° 286° (WNW) 17:18:30 437.465
MOZHAYETS 4 19 Apr 17:12:40 17:15:12 15° 91° (E) 17:17:57
HORYU 2 19 Apr 17:13:09 17:17:03 29° 264° (W) 17:20:55 437.375
AO-7 19 Apr 17:22:57 17:31:06 59° 257° (WSW) 17:39:15 29.400- 29.500
KKS-1 19 Apr 17:36:06 17:38:59 16° 292° (WNW) 17:41:41 437.445
GONETS M04 19 Apr 17:44:57 17:53:17 54° 91° (E) 18:01:47
CUTE-I 19 Apr 18:03:17 18:06:54 19° 67° (ENE) 18:10:42 437.470
RS-15 19 Apr 18:06:02 18:15:59 38° 315° (NW) 18:25:58 29.354- 29.394
Cubesat XI-IV 19 Apr 18:10:18 18:14:21 23° 68° (ENE) 18:18:32 437.490
JAS-2 19 Apr 18:42:58 18:47:55 17° 273° (W) 18:52:25 435.910
MOZHAYETS 4 19 Apr 18:48:20 18:52:42 42° 286° (WNW) 18:56:59
AUBIESAT-1 19 Apr 18:51:19 18:53:25 14° 94° (E) 18:55:37 437.475
DANDE 19 Apr 19:03:17 19:05:56 48° 95° (E) 19:09:07 436.750
CUSAT 1 19 Apr 19:08:20 19:11:13 77° 280° (W) 19:14:51 437.405
Cosmos 2499 19 Apr 19:25:18 19:33:17 41° 89° (E) 19:41:25 435.465 / 435.565
M-CUBED/EXP-1 PRIME 19 Apr 19:35:28 19:39:48 58° 104° (ESE) 19:43:43 437.505
VERMONT LUNAR 19 Apr 19:41:09 19:44:23 41° 150° (SSE) 19:47:36 437.305
CUTE-I 19 Apr 19:41:33 19:46:41 46° 261° (W) 19:51:47 437.470
GONETS M04 19 Apr 19:43:10 19:50:36 29° 289° (WNW) 19:57:50
Cubesat XI-IV 19 Apr 19:49:16 19:54:15 38° 262° (W) 19:59:12 437.490
PCSat 19 Apr 19:55:03 20:00:23 55° 60° (ENE) 20:05:41 145.827
CUBESAT XI-V 19 Apr 20:05:15 20:09:53 89° 271° (W) 20:14:28 437.345
PRISM 19 Apr 20:20:59 20:25:06 89° 102° (ESE) 20:29:11 437.425
AUBIESAT-1 19 Apr 20:24:29 20:28:33 39° 292° (WNW) 20:32:16 437.475
RS-15 19 Apr 20:28:18 20:33:09 13° 347° (NNW) 20:37:45 29.354- 29.394
CANX-2 19 Apr 20:28:51 20:30:53 14° 68° (ENE) 20:33:09 2200.000
DOVE 4 19 Apr 20:31:06 20:31:09 10° 66° (ENE) 20:31:28 437.250
SEEDS 19 Apr 20:33:06 20:34:05 11° 67° (ENE) 20:35:20 437.485
BRITE-PL 19 Apr 20:33:37 20:37:10 29° 73° (ENE) 20:40:47 437.365/2234.400
CUTE 1.7 + AOD 2 19 Apr 20:38:31 20:41:03 16° 69° (ENE) 20:43:46 437.475
HO-68 19 Apr 20:38:38 20:44:55 35° 67° (ENE) 20:51:20 435.675
PHONESAT 2.4 19 Apr 20:39:44 20:43:09 43° 150° (SSE) 20:46:35 2401.200-2431.200
STRAND 1 19 Apr 20:42:13 20:47:21 85° 281° (W) 20:52:26 437.568
GOMX 1 19 Apr 20:55:43 20:59:22 32° 73° (ENE) 21:03:09 467.674
AAUSAT CUBESAT 2 19 Apr 21:04:47 21:07:35 18° 70° (ENE) 21:10:32 437.432
M-CUBED/EXP-1 PRIME 19 Apr 21:12:32 21:14:06 11° 300° (WNW) 21:15:23 437.505
Cosmos 2499 19 Apr 21:18:15 21:26:28 40° 285° (WNW) 21:34:32 435.465 / 435.565
VERMONT LUNAR 19 Apr 21:18:40 21:21:55 44° 345° (NNW) 21:25:12 437.305
Oscar 11 19 Apr 21:21:21 21:23:16 13° 68° (ENE) 21:25:26 145.826/435.025
PCSat 19 Apr 21:39:59 21:43:23 16° 254° (WSW) 21:46:33 145.827
YUBILEINY 19 Apr 21:45:46 21:47:38 11° 59° (ENE) 21:50:21 435.215
COMPASS 1 19 Apr 21:50:21 21:54:35 76° 76° (ENE) 21:58:49 437.405
UWE-3 19 Apr 21:50:41 21:53:35 18° 69° (ENE) 21:56:39 435.000/436.395/437.385
SO-50 19 Apr 21:53:31 21:55:57 14° 44° (NE) 21:58:34 436.795
CINEMA 3 19 Apr 22:00:58 22:05:05 60° 76° (ENE) 22:09:22 145.822/145.860
CANX-2 19 Apr 22:02:23 22:06:29 44° 262° (W) 22:10:36 2200.000
ISS 19 Apr 22:03:54 22:07:05 51° 40° (NE) 22:10:14 145.825
DOVE 4 19 Apr 22:04:24 22:08:28 55° 261° (W) 22:12:39 437.250
SEEDS 19 Apr 22:05:17 22:09:27 55° 260° (W) 22:13:40 437.485
CUTE 1.7 + AOD 2 19 Apr 22:12:44 22:16:42 37° 263° (W) 22:20:42 437.475
BRITE-PL 19 Apr 22:13:01 22:15:50 17° 267° (W) 22:18:30 437.365/2234.400
FUNcube-1 19 Apr 22:17:33 22:21:11 29° 72° (ENE) 22:24:59 145.935
PHONESAT 2.4 19 Apr 22:17:58 22:21:26 46° 345° (NNW) 22:24:54 2401.200-2431.200
